Weather History for KNSI - October, 2012

Change the Weather History Date:

Saturday, October 27, 2012

  Actual Average Record
Temperature  
Mean Temperature 78 °F -  
Max Temperature 106 °F 64 °F 106 °F (2012)
Min Temperature 71 °F 54 °F 48 °F (2011)
Cooling Degree Days 14    
Growing Degree Days 28 (Base 50)    
Moisture  
Dew Point 35 °F    
Average Humidity 22    
Maximum Humidity 41    
Minimum Humidity 9    
Precipitation  
Precipitation 0.00 in - - ()
Sea Level Pressure  
Sea Level Pressure 29.87 in    
Wind  
Wind Speed 9 mph (NW)    
Max Wind Speed 14 mph    
Max Gust Speed -    
Visibility 7 miles    
Events      
Averages and records for this station are not official NWS values.
T = Trace of Precipitation, MM = Missing Value Source: NWS Daily Summary

Daily Weather History Graph

Daily Weather History Graph

Search for Another Location

Airport or City:

Trip Planner

Search our weather history database for the weather conditions in past years. The results will help you decide how hot, cold, wet, or windy it might be!

Date:

Astronomy

Oct. 27, 2012 Rise Set
Actual Time 7:12 AM PDT 6:10 PM PDT
Civil Twilight 6:47 AM PDT 6:35 PM PDT
Nautical Twilight 6:17 AM PDT 7:04 PM PDT
Astronomical Twilight 5:48 AM PDT 7:33 PM PDT
Moon 4:56 PM PDT (10/27) 5:16 AM PDT (10/27)
Length of Visible Light 11h 48m
Length of Day
10h 57m
Waxing Gibbous, 96% of the Moon is Illuminated
Oct 27
Waxing Gibbous
Oct 29
Full
Nov 6
Last Quarter
Nov 13
New
Nov 20
First Quarter

Hourly Weather History & Observations

Time (PDT) Temp. Dew Point Humidity Pressure Visibility Wind Dir Wind Speed Gust Speed Precip Events Conditions
12:53 AM 81.0 °F 39.0 °F 22% 29.91 in - NW 13.8 mph - N/A   Clear
1:53 AM 75.9 °F 44.1 °F 32% 29.89 in - NW 13.8 mph - N/A   Clear
2:53 AM 72.0 °F 45.0 °F 38% 29.88 in - WNW 12.7 mph - N/A   Clear
3:53 AM 72.0 °F 46.9 °F 41% 29.87 in - WNW 10.4 mph - N/A   Clear
4:53 AM 77.0 °F 39.0 °F 25% 29.87 in - NW 10.4 mph - N/A   Clear
5:53 AM 71.1 °F 45.0 °F 39% 29.87 in - WNW 11.5 mph - N/A   Clear
6:53 AM 71.1 °F 44.1 °F 38% 29.88 in - WNW 10.4 mph - N/A   Clear
7:53 AM 77.0 °F 46.0 °F 33% 29.88 in - WNW 9.2 mph - N/A   Clear
8:53 AM 82.9 °F 48.0 °F 29% 29.90 in - NW 6.9 mph - N/A   Clear
9:53 AM 81.0 °F 34.0 °F 18% 29.90 in - North 3.5 mph - N/A   Clear
10:53 AM 79.0 °F 33.1 °F 19% 29.89 in 7.0 mi NNE 3.5 mph - N/A   Clear
11:53 AM 79.7 °F 35.1 °F 20% 29.89 in 7.0 mi NE 4.6 mph - N/A   Clear
12:53 PM 80.4 °F 34.0 °F 19% 29.86 in 7.0 mi NE 4.6 mph - N/A   Clear
1:53 PM 80.8 °F 32.0 °F 17% 29.85 in 7.0 mi Variable 4.6 mph - N/A   Clear
2:53 PM 82.6 °F 28.9 °F 14% 29.83 in 7.0 mi Calm Calm - N/A   Clear
3:53 PM 81.5 °F 35.1 °F 19% 29.83 in 7.0 mi NNW 3.5 mph - N/A   Clear
4:53 PM 79.5 °F 28.9 °F 16% 29.83 in 7.0 mi WNW 3.5 mph - N/A   Clear
5:53 PM 86.0 °F 39.0 °F 19% 29.83 in - West 5.8 mph - N/A   Clear
6:53 PM 82.9 °F 24.1 °F 12% 29.85 in - West 8.1 mph - N/A   Clear
7:53 PM 84.0 °F 25.0 °F 12% 29.85 in - West 8.1 mph - N/A   Clear
8:53 PM 84.0 °F 21.9 °F 10% 29.86 in - WNW 5.8 mph - N/A   Clear
9:53 PM 84.9 °F 27.0 °F 12% 29.88 in - West 5.8 mph - N/A   Clear
10:53 PM 86.0 °F 27.0 °F 12% 29.88 in - WNW 3.5 mph - N/A   Clear
11:53 PM 88.0 °F 23.0 °F 9% 29.88 in - South 5.8 mph - N/A   Clear